Cloud_Cover
100 85 85 86 76 93 100 100 100 100 100 100 100 100 100 100 100 12 66 100 100 100 30 5 0 5 5 5 0 20 62 83 96 36 7 5 96 71 5 0 1 11 0
100 98 87 100 100 100 100 100 100 100 100 100 100 100 100 100 100 100 100 100 35 0 0 0 0 5 4 5 5 73 97 49 26 25 100 44 100 14 0 0 5 14 3
70 54 86 100 100 100 100 100 100 100 100 99 83 87 51 29 100 100 89 0 0 0 0 0 1 5 3 0 5 100 100 100 100 98 77 100 97 91 93 0 0 5 3
100 92 89 64 93 90 100 97 88 96 44 60 74 100 100 100 100 5 0 0 0 0 0 0 2 5 3 0 5 100 100 100 100 100 82 100 64 100 100 4 4 3 5
100 98 80 13 96 100 96 89 91 77 99 100 100 95 56 11 0 0 0 0 1 2 5 1 5 3 0 0 2 47 94 100 100 100 74 7 40 89 4 0 0 0 5
64 100 49 7 95 100 100 100 100 100 48 16 0 0 0 0 0 0 0 3 5 5 5 5 5 3 5 0 0 24 13 98 100 100 93 28 83 52 7 0 0 0 1
100 100 98 100 90 5 22 71 49 5 4 0 0 0 0 0 0 0 0 0 0 0 5 6 6 2 5 4 1 63 7 9 100 93 81 95 88 94 72 2 0 3 0
84 60 9 0 2 5 5 5 19 0 0 0 0 0 0 0 0 0 0 2 4 5 5 48 19 5 5 23 100 14 5 5 98 100 41 73 93 20 7 26 1 5 2
80 95 56 24 0 1 0 0 0 0 0 0 0 0 0 0 0 0 0 2 4 5 5 77 5 5 5 5 5 76 85 88 30 68 45 85 100 88 27 5 10 4 6
48 100 61 73 17 0 0 0 0 0 0 0 1 0 0 0 0 0 0 0 0 0 9 85 100 97 11 5 5 76 100 85 96 100 100 88 95 8 46 14 5 9 4
62 95 88 92 25 29 29 2 0 0 0 0 0 0 0 3 0 0 17 0 0 0 3 74 100 100 100 23 8 100 100 100 99 100 100 90 95 49 9 49 7 6 1
45 94 29 34 31 34 43 6 1 0 0 0 0 1 0 0 0 1 0 0 0 0 0 0 0 2 71 100 97 98 99 88 100 74 96 92 100 84 50 100 95 27 37
2 2 1 3 21 28 29 4 6 0 0 0 0 0 0 0 16 22 40 83 69 20 47 94 91 100 28 22 93 100 100 94 70 100 51 98 100 100 100 100 100 100 100
0 0 6 7 3 1 5 0 0 1 0 0 0 0 0 1 15 11 59 69 10 98 1 35 93 25 72 83 71 58 100 93 100 85 80 37 48 92 100 100 100 100 100
0 0 0 2 30 28 14 0 0 0 0 0 0 0 0 18 37 44 42 0 17 21 85 4 48 51 72 93 81 77 71 88 100 100 97 5 16 100 100 100 100 100 100
0 0 0 0 2 3 2 1 0 0 0 2 4 1 0 0 23 33 6 65 17 22 44 11 1 8 21 100 100 100 66 16 33 100 100 94 69 38 9 96 100 100 100
0 0 0 0 0 0 0 0 0 0 0 11 7 12 99 53 4 33 84 75 16 88 0 19 9 81 47 64 99 100 76 71 0 19 100 100 83 87 88 5 96 100 100
0 0 0 0 0 1 0 0 0 3 21 27 7 1 7 13 0 37 54 3 6 0 79 20 17 71 33 0 1 0 0 0 0 0 2 100 100 51 63 66 27 100 100
0 0 0 0 0 0 0 4 5 19 3 32 29 0 9 13 2 4 0 36 9 14 18 67 5 6 1 4 6 5 8 0 0 0 0 0 88 97 56 5 10 24 99
0 0 0 0 0 0 7 18 1 0 3 0 23 8 22 2 6 28 17 6 5 59 43 80 5 0 1 3 5 5 5 5 0 0 2 0 0 75 57 31 31 2 13
0 0 0 0 0 0 7 5 6 2 0 19 24 22 23 20 1 15 26 3 0 28 20 3 4 0 1 4 0 6 99 79 5 0 0 0 0 0 67 36 70 52 27
0 0 0 0 0 0 0 0 13 46 29 7 23 19 4 17 21 9 9 38 5 4 5 6 5 5 5 0 2 2 12 67 78 65 6 10 0 0 0 63 41 79 89
0 0 0 0 0 0 0 3 16 8 3 23 3 3 0 3 2 13 5 1 2 5 0 0 1 4 5 5 4 5 5 20 64 94 77 17 4 0 0 0 52 65 53
0 0 0 0 0 0 0 0 0 0 0 0 0 0 0 0 0 0 5 0 5 5 5 4 0 0 0 3 7 2 5 5 100 98 100 100 4 4 0 0 0 37 100
0 0 0 0 0 0 0 0 0 0 0 0 0 0 0 0 4 100 7 1 5 5 5 5 5 0 0 2 0 0 5 6 99 100 100 100 62 3 5 0 0 0 2
0 0 0 0 0 0 0 0 0 0 0 0 0 0 0 0 90 100 88 65 16 5 5 2 4 5 0 0 2 1 6 85 100 100 100 100 100 48 4 3 3 0 0